Location: Bannatyne
(13.0833°N, 59.5333°W)
Time: 00:47:23
(UTC+00:00)

Transit 4A - Pass Details

Date: 21 January 2021
Orbit: 866 x 978 km, 66.8° (Epoch: 03 March)

Event Time Altitude Azimuth Distance (km) Brightness Sun altitude
Rises 09:09:18 0° 351° (N) 3,549 10.7 -18.3°
Reaches altitude 10° 09:12:00 10° 359° (N) 2,589 10.0 -17.7°
Maximum altitude 09:17:34 40° 67° (ENE) 1,294 9.1 -16.4°
Drops below altitude 10° 09:23:00 10° 136° (SE) 2,526 11.2 -15.2°
Sets 09:25:36 0° 143° (SE) 3,453 11.8 -14.5°
